Location: Unspecified
(0.0000°N, 0.0000°E)
Time: 08:17:17
(UTC+00:00)

Explorer 11/Cluster Stage 4 - Pass Details

Date: 21 July 2020
Orbit: 467 x 1259 km, 28.8° (Epoch: 03 August)

Event Time Altitude Azimuth Distance (km) Brightness Sun altitude
Rises 15:02:59 0° 301° (WNW) 3,482 10.7 42.3°
Reaches altitude 10° 15:05:21 10° 302° (WNW) 2,655 10.4 41.8°
Maximum altitude 15:11:59 88° 29° (NNE) 1,091 8.0 40.3°
Drops below altitude 10° 15:19:57 10° 120° (ESE) 3,152 9.3 38.5°
Sets 15:22:59 0° 120° (ESE) 4,168 9.8 37.9°
